Flag for Canada Weather past 2 weeks in Thunder Bay, Ontario, Canada

Now
48 °F

Passing clouds.


Feels Like: 46 °F
Forecast: 50 / 74 °F
Wind: 6 mph from Southwest

Location: Thunder Bay

Current Time: Jul 24, 2014 at 7:18:29 AM

Latest Report: Jul 24, 2014 at 7:00 AM


Visibility: 20 mi

Pressure: 30.18 "Hg

Humidity: 94%

Dew point: 46 °F

Location of Thunder BayLocation

Historic Weather in Thunder Bay — Graph

°F

Thunder Bay temperature yesterday

Maximum temperature yesterday: 73 °F (at 5:00 PM)
Minimum temperature yesterday: 55 °F (at 11:00 PM)
Average temperature yesterday: 65 °F

Past Weeks' High & Low Weather Summary

 TemperatureHumidityPressure
High90 °F (Jul 21, 3:00 PM)100% (Jul 10, 3:00 AM)30.25 "Hg (Jul 10, 3:00 AM)
Low43 °F (Jul 14, 7:00 AM)30% (Jul 16, 7:00 PM)29.64 "Hg (Jul 22, 11:00 AM)
Average63 °F76%29.93 "Hg
* Reported Jul 9 6:00 AM — Jul 24 6:00 AM, Thunder Bay, Weather by CustomWeather, © 2014

Note: Actual official high and low records may vary slightly from our data, if they occured in-between our weather recording intervals... More about our weather records

Advertising

Thunder Bay weather history for previous 24 hours

 ConditionsComfort  
Time TempWeatherWind HumidityBarometerVisibility
6:00 AM
Jul 24
48 °FPassing clouds.5 mph94%30.16 "Hg20 mi
5:00 AM48 °FClear.5 mph94%30.15 "Hg15 mi
4:00 AM50 °FClear.5 mph94%30.16 "Hg15 mi
3:00 AM52 °FClear.5 mph94%30.16 "Hg15 mi
2:00 AM52 °FClear.3 mph94%30.16 "Hg20 mi
1:00 AM54 °FClear.5 mph94%30.17 "Hg15 mi
12:00 AM55 °FClear.2 mph88%30.17 "Hg15 mi
11:00 PM
Jul 23
55 °FPassing clouds.3 mph88%30.17 "Hg15 mi
10:00 PM59 °FPassing clouds.3 mph77%30.17 "Hg15 mi
9:00 PM68 °FPassing clouds.3 mph49%30.17 "Hg20 mi
8:00 PM70 °FPassing clouds.8 mph40%30.19 "Hg20 mi
7:00 PM72 °FScattered clouds.8 mph41%30.19 "Hg20 mi
6:00 PM72 °FPartly sunny.12 mph44%30.20 "Hg20 mi
5:00 PM73 °FBroken clouds.9 mph41%30.21 "Hg20 mi
4:00 PM70 °FBroken clouds.10 mph60%30.22 "Hg20 mi
3:00 PM72 °FBroken clouds.10 mph47%30.22 "Hg20 mi
2:00 PM70 °FBroken clouds.3 mph53%30.23 "Hg20 mi
1:00 PM68 °FBroken clouds.2 mph53%30.24 "Hg20 mi
12:00 PM66 °FPartly sunny.6 mph60%30.24 "Hg20 mi
11:00 AM66 °FPartly sunny.3 mph64%30.24 "Hg20 mi
10:00 AM64 °FScattered clouds.2 mph73%30.24 "Hg20 mi
9:00 AM63 °FPassing clouds.No wind83%30.25 "Hg20 mi
Weather by CustomWeather, © 2014

See weather overviewHow to use our weather pages